Time,TemperatureF,DewpointF,PressureIn,WindDirection,WindDirectionDegrees,WindSpeedMPH,WindSpeedGustMPH,Humidity,HourlyPrecipIn,Conditions,Clouds,dailyrainin,SoftwareType,DateUTC
2013-11-10 00:23:00,44.0,37.0,30.29,WNW,286,0.0,0.0,76,0.00,,,0.00,,2013-11-10 05:23:00,
2013-11-10 00:54:00,43.0,36.0,30.27,WNW,286,0.0,0.0,77,0.00,,,0.00,,2013-11-10 05:54:00,
2013-11-10 01:22:00,44.0,39.0,30.27,WNW,286,0.0,0.0,81,0.00,,,0.00,,2013-11-10 06:22:00,
2013-11-10 01:52:00,44.0,38.0,30.28,WNW,286,0.0,0.0,79,0.00,,,0.00,,2013-11-10 06:52:00,
2013-11-10 02:22:00,45.0,39.0,30.28,WNW,286,0.0,0.0,78,0.00,,,0.00,,2013-11-10 07:22:00,
2013-11-10 02:43:00,45.0,38.0,30.28,WNW,286,0.0,0.0,76,0.00,,,0.00,,2013-11-10 07:43:00,
2013-11-10 02:52:00,45.0,38.0,30.28,WNW,286,0.0,0.0,76,0.00,,,0.00,,2013-11-10 07:52:00,
2013-11-10 03:22:00,46.0,37.0,30.28,WNW,286,0.0,0.0,72,0.00,,,0.00,,2013-11-10 08:22:00,
2013-11-10 03:42:00,46.0,37.0,30.28,WNW,286,0.0,0.0,72,0.00,,,0.00,,2013-11-10 08:42:00,
2013-11-10 03:52:00,47.0,40.0,30.28,WNW,286,0.0,0.0,76,0.00,,,0.00,,2013-11-10 08:52:00,
2013-11-10 04:22:00,47.0,39.0,30.28,WNW,286,0.0,0.0,75,0.00,,,0.00,,2013-11-10 09:22:00,
2013-11-10 04:53:00,46.0,38.0,30.29,WNW,286,0.0,0.0,74,0.00,,,0.00,,2013-11-10 09:53:00,
2013-11-10 05:23:00,45.0,38.0,30.29,WNW,286,0.0,0.0,76,0.00,,,0.00,,2013-11-10 10:23:00,
2013-11-10 05:42:00,44.0,37.0,30.29,WNW,286,0.0,0.0,76,0.00,,,0.00,,2013-11-10 10:42:00,
2013-11-10 05:53:00,44.0,37.0,30.30,WNW,286,0.0,0.0,77,0.00,,,0.00,,2013-11-10 10:53:00,
2013-11-10 06:22:00,42.0,37.0,30.29,WNW,286,0.0,0.0,81,0.00,,,0.00,,2013-11-10 11:22:00,
2013-11-10 06:43:00,42.0,37.0,30.30,WNW,286,0.0,0.0,81,0.00,,,0.00,,2013-11-10 11:43:00,
2013-11-10 06:52:00,41.0,36.0,30.31,WNW,286,0.0,0.0,82,0.00,,,0.00,,2013-11-10 11:52:00,
2013-11-10 07:22:00,40.0,36.0,30.32,WNW,286,0.0,0.0,84,0.00,,,0.00,,2013-11-10 12:22:00,
2013-11-10 07:42:00,40.0,36.0,30.32,WNW,286,0.0,0.0,85,0.00,,,0.00,,2013-11-10 12:42:00,
2013-11-10 07:52:00,40.0,36.0,30.32,WNW,286,0.0,0.0,85,0.00,,,0.00,,2013-11-10 12:52:00,
2013-11-10 08:22:00,39.0,35.0,30.32,WNW,286,0.0,0.0,87,0.00,,,0.00,,2013-11-10 13:22:00,
2013-11-10 08:52:00,39.0,36.0,30.34,WNW,286,0.0,0.0,89,0.00,,,0.00,,2013-11-10 13:52:00,
2013-11-10 09:21:00,40.0,38.0,30.34,WNW,286,0.0,0.0,92,0.00,,,0.00,,2013-11-10 14:21:00,
2013-11-10 09:52:00,43.0,41.0,30.34,WNW,286,0.0,0.0,92,0.00,,,0.00,,2013-11-10 14:52:00,
2013-11-10 10:22:00,45.0,41.0,30.35,WNW,286,0.0,0.0,87,0.00,,,0.00,,2013-11-10 15:22:00,
2013-11-10 10:53:00,48.0,42.0,30.35,WNW,286,0.0,0.0,81,0.00,,,0.00,,2013-11-10 15:53:00,
2013-11-10 11:23:00,51.0,41.0,30.34,WNW,286,0.0,0.0,68,0.00,,,0.00,,2013-11-10 16:23:00,
2013-11-10 11:53:00,54.0,42.0,30.33,West,263,0.0,2.0,63,0.00,,,0.00,,2013-11-10 16:53:00,
2013-11-10 12:23:00,57.0,43.0,30.32,West,280,1.0,3.0,59,0.00,,,0.00,,2013-11-10 17:23:00,
2013-11-10 12:43:00,58.0,42.0,30.31,West,278,1.0,3.0,55,0.00,,,0.00,,2013-11-10 17:43:00,
2013-11-10 12:52:00,59.0,41.0,30.31,NW,323,0.0,2.0,52,0.00,,,0.00,,2013-11-10 17:52:00,
2013-11-10 13:24:00,63.0,42.0,30.29,NW,313,0.0,6.0,47,0.00,,,0.00,,2013-11-10 18:24:00,
2013-11-10 13:42:00,65.0,43.0,30.29,WNW,292,1.0,3.0,44,0.00,,,0.00,,2013-11-10 18:42:00,
2013-11-10 13:52:00,66.0,43.0,30.28,WNW,292,1.0,3.0,43,0.00,,,0.00,,2013-11-10 18:52:00,
2013-11-10 14:22:00,67.0,43.0,30.27,WNW,303,1.0,3.0,41,0.00,,,0.00,,2013-11-10 19:22:00,
2013-11-10 14:52:00,69.0,42.0,30.27,NW,314,0.0,2.0,38,0.00,,,0.00,,2013-11-10 19:52:00,
2013-11-10 15:22:00,69.0,42.0,30.26,WNW,300,1.0,4.0,37,0.00,,,0.00,,2013-11-10 20:22:00,
2013-11-10 15:53:00,68.0,39.0,30.26,NW,304,1.0,5.0,35,0.00,,,0.00,,2013-11-10 20:53:00,
2013-11-10 16:22:00,68.0,41.0,30.26,WNW,297,1.0,3.0,37,0.00,,,0.00,,2013-11-10 21:22:00,
2013-11-10 16:55:00,67.0,41.0,30.26,WNW,297,0.0,4.0,38,0.00,,,0.00,,2013-11-10 21:55:00,
2013-11-10 17:23:00,66.0,42.0,30.26,WNW,297,0.0,0.0,42,0.00,,,0.00,,2013-11-10 22:23:00,
2013-11-10 17:43:00,65.0,41.0,30.26,WNW,297,0.0,0.0,42,0.00,,,0.00,,2013-11-10 22:43:00,
2013-11-10 17:54:00,64.0,41.0,30.26,WNW,297,0.0,0.0,43,0.00,,,0.00,,2013-11-10 22:54:00,
2013-11-10 18:22:00,62.0,40.0,30.27,WNW,297,0.0,0.0,45,0.00,,,0.00,,2013-11-10 23:22:00,
2013-11-10 18:53:00,59.0,37.0,30.28,WNW,297,0.0,0.0,44,0.00,,,0.00,,2013-11-10 23:53:00,
2013-11-10 19:22:00,57.0,36.0,30.29,WNW,297,0.0,0.0,46,0.00,,,0.00,,2013-11-11 00:22:00,
2013-11-10 19:42:00,57.0,36.0,30.29,WNW,297,0.0,0.0,46,0.00,,,0.00,,2013-11-11 00:42:00,
2013-11-10 19:52:00,56.0,36.0,30.29,WNW,297,0.0,0.0,46,0.00,,,0.00,,2013-11-11 00:52:00,
2013-11-10 20:22:00,55.0,35.0,30.29,WNW,297,0.0,0.0,47,0.00,,,0.00,,2013-11-11 01:22:00,
2013-11-10 20:42:00,55.0,36.0,30.29,WNW,297,0.0,0.0,49,0.00,,,0.00,,2013-11-11 01:42:00,
2013-11-10 20:52:00,54.0,36.0,30.29,WNW,297,0.0,0.0,51,0.00,,,0.00,,2013-11-11 01:52:00,
2013-11-10 21:21:00,53.0,35.0,30.30,WNW,297,0.0,0.0,51,0.00,,,0.00,,2013-11-11 02:21:00,
2013-11-10 21:52:00,51.0,37.0,30.31,WNW,297,0.0,0.0,58,0.00,,,0.00,,2013-11-11 02:52:00,
2013-11-10 22:22:00,49.0,36.0,30.31,WNW,297,0.0,0.0,60,0.00,,,0.00,,2013-11-11 03:22:00,
2013-11-10 22:55:00,47.0,35.0,30.31,WNW,297,0.0,0.0,63,0.00,,,0.00,,2013-11-11 03:55:00,
2013-11-10 23:14:00,46.0,35.0,30.32,WNW,297,0.0,0.0,65,0.00,,,0.00,,2013-11-11 04:14:00,
2013-11-10 23:24:00,45.0,34.0,30.32,WNW,297,0.0,0.0,66,0.00,,,0.00,,2013-11-11 04:24:00,
2013-11-10 23:43:00,45.0,35.0,30.32,WNW,297,0.0,0.0,67,0.00,,,0.00,,2013-11-11 04:43:00,
2013-11-10 23:53:00,44.0,34.0,30.31,WNW,297,0.0,0.0,68,0.00,,,0.00,,2013-11-11 04:53:00,